Regional Weather Roundup
Issued by NWS Goodland, KS

Home | Current Version | Previous Version | Graphics & Text | Print | Product List | Glossary On
Versions: 1 2 3 4 5 6 7 8 9 10 11 12 13 14 15 16 17 18 19 20 21 22 23 24 25 26 27 28 29 30 31 32 33 34 35 36 37 38 39 40 41 42 43 44 45 46 47 48 49 50
000
ASUS43 KGLD 041859
RWRGLD

GOODLAND FORECAST AREA HOURLY WEATHER ROUNDUP
NATIONAL WEATHER SERVICE GOODLAND KS
100 PM MDT TUE AUG 04 2015

...OFFICIAL OBSERVATIONS...

CITY           SKY/WX    TMP DP  RH WIND       PRES   REMARKS
GOODLAND KS    MOSUNNY   89  54  30 SW9G18    29.93S
HILL CITY KS   PTSUNNY   89  62  40 S12       29.90F
IMPERIAL NEB   CLOUDY    61  58  90 NE10      30.01F
MCCOOK NEB     CLOUDY    69  67  93 NE7       29.95R THUNDER
AKRON CO       MOSUNNY   84  45  25 N9        30.03R
BURLINGTON CO  SUNNY     85  58  39 NW13      29.98F
LIMON CO       MOSUNNY   83  44  25 CALM      30.08S
$$

...UNOFFICIAL OBSERVATIONS...

CITY           SKY/WX    TMP DP  RH WIND       PRES   REMARKS
COLBY KS       SUNNY     90  63  40 SE15      29.93R
NORTON KS      PTSUNNY   73  66  78 E10G18    29.92
SHARON SPRINGS   N/A     89  61  38 N7          N/A
KIT CARSON CO    N/A     88  56  33 MISG        N/A
YUMA CO          N/A     86  50  28 W12G21      N/A
$$


USA.gov is the U.S. government's official web portal to all federal, state and local government web resources and services.